Flag for Germany Weather past 2 weeks in Langenfeld (Rheinland), North Rhine-Westphalia, Germany

Now
55 °F

Passing clouds.


Feels Like: 53 °F
Forecast: 36 / 57 °F
Wind: 10 mph from West

Location: Duesseldorf

Current Time: Apr 28, 2015 at 5:11:22 PM

Latest Report: Apr 28, 2015 at 4:50 PM


Visibility: N/A

Pressure: 30.04 "Hg

Humidity: 44%

Dew point: 34 °F

Location of Langenfeld (Rheinland)Location

Historic Weather in Langenfeld (Rheinland) — Graph

°F

Langenfeld (Rheinland) temperature yesterday

Maximum temperature yesterday: 54 °F (at 12:20 AM)
Minimum temperature yesterday: 45 °F (at 11:20 PM)
Average temperature yesterday: 49 °F

Past Weeks' High & Low Weather Summary

 TemperatureHumidityPressure
High75 °F (Apr 15, 3:20 PM)100% (Apr 23, 6:20 AM)30.48 "Hg (Apr 23, 6:20 AM)
Low32 °F (Apr 28, 6:20 AM)23% (Apr 21, 3:20 PM)29.62 "Hg (Apr 27, 2:20 AM)
Average53 °F65%30.09 "Hg
* Reported Apr 13 3:20 PM — Apr 28 3:50 PM, Langenfeld (Rheinland), Weather by CustomWeather, © 2015

Note: Actual official high and low records may vary slightly from our data, if they occured in-between our weather recording intervals... More about our weather records

Advertising

Langenfeld (Rheinland) weather history for previous 24 hours

 ConditionsComfort  
Time TempWeatherWind HumidityBarometerVisibility
3:50 PM
Tue, Apr 28
52 °FPassing clouds.12 mph54%30.04 "HgN/A
3:20 PM52 °FScattered clouds.17 mph54%30.04 "HgN/A
2:50 PM54 °FPassing clouds.15 mph54%30.04 "HgN/A
2:20 PM50 °FScattered clouds.15 mph62%30.04 "HgN/A
1:50 PM50 °FSprinkles. Scattered clouds.18 mph58%30.01 "HgN/A
1:20 PM54 °FScattered clouds.18 mph47%29.98 "HgN/A
12:50 PM52 °FScattered clouds.16 mph54%29.98 "HgN/A
12:20 PM52 °FScattered clouds.13 mph58%29.98 "HgN/A
11:50 AM54 °FPassing clouds.9 mph63%29.98 "HgN/A
11:20 AM52 °FPassing clouds.9 mph58%29.98 "HgN/A
10:50 AM50 °FPassing clouds.10 mph54%29.98 "HgN/A
10:20 AM48 °FCool.8 mph62%29.98 "HgN/A
9:50 AM46 °FSunny.7 mph66%29.98 "Hg10 mi
9:20 AM45 °FSunny.7 mph71%29.95 "Hg10 mi
8:50 AM43 °FSunny.2 mph76%29.95 "Hg10 mi
8:20 AM41 °FSunny.No wind81%29.95 "Hg10 mi
7:50 AM37 °FSunny.1 mph93%29.95 "Hg10 mi
7:20 AM34 °FSunny.1 mph93%29.92 "Hg10 mi
6:50 AM34 °FClear.1 mph93%29.92 "Hg10 mi
6:20 AM32 °FFog.1 mph93%29.89 "HgN/A
5:20 AM34 °FFog.2 mph87%29.89 "HgN/A
4:50 AM36 °FClear.3 mph87%29.89 "Hg10 mi
4:20 AM36 °FClear.3 mph87%29.89 "Hg10 mi
3:50 AM37 °FClear.5 mph87%29.86 "Hg10 mi
3:20 AM37 °FClear.5 mph87%29.86 "Hg10 mi
2:50 AM37 °FClear.6 mph81%29.86 "Hg10 mi
2:20 AM39 °FClear.5 mph81%29.86 "Hg10 mi
1:50 AM39 °FClear.5 mph81%29.86 "Hg10 mi
1:20 AM41 °FClear.6 mph76%29.86 "Hg10 mi
12:50 AM43 °FClear.8 mph71%29.86 "Hg10 mi
12:20 AM43 °FClear.9 mph71%29.83 "Hg10 mi
11:20 PM
Mon, Apr 27
45 °FClear.10 mph66%29.83 "Hg10 mi
10:50 PM46 °FPassing clouds.8 mph66%29.83 "HgN/A
10:20 PM46 °FPartly cloudy.9 mph71%29.83 "HgN/A
9:50 PM46 °FPartly cloudy.5 mph82%29.80 "HgN/A
9:20 PM46 °FBroken clouds.3 mph82%29.80 "HgN/A
8:50 PM48 °FBroken clouds.5 mph71%29.80 "HgN/A
8:20 PM50 °FBroken clouds.5 mph67%29.77 "HgN/A
7:50 PM50 °FPartly sunny.5 mph67%29.77 "HgN/A
7:20 PM50 °FBroken clouds.6 mph67%29.77 "HgN/A
6:50 PM52 °FBroken clouds.6 mph62%29.77 "HgN/A
6:20 PM52 °FBroken clouds.7 mph62%29.77 "HgN/A
5:50 PM52 °FBroken clouds.9 mph62%29.77 "HgN/A
5:20 PM52 °FPartly sunny.10 mph58%29.77 "HgN/A
Weather by CustomWeather, © 2015

See weather overviewHow to use our weather pages